Location: Sungai Bunut
(2.6333°N, 113.7333°E)
Time: 18:56:03
(UTC+00:00)

Daily predictions for brighter satellites

Satellite Brightness Start Highest point End
(mag) Time Altitude Azimuth Time Altitude Azimuth Time Altitude Azimuth
Ariane H10 3.7 12:02:12 10° W 12:07:19 42° NW 12:07:19 42° NW
Ariane H10 4.3 12:01:59 10° W 12:11:01 66° WSW 12:11:01 66° WSW
Ariane 3 Deb 3.6 12:04:07 10° W 12:17:31 65° SSW 12:17:31 65° SSW
ARIANE 5 DEB (SYLDA) 4.0 12:20:38 10° W 12:28:28 55° WSW 12:28:28 55° WSW
ATLAS 2A CENTAUR R/B 4.3 12:14:52 10° WSW 12:53:43 65° SSE 12:54:18 65° SSE
Ariane H10 4.2 19:29:16 43° E 19:29:16 43° E 19:39:25 10° E
Atlas Centaur 2 3.6 19:51:20 34° SSE 19:51:54 34° SSE 19:57:09 10° E
Sea Lan Dem Rocket 4.0 20:01:42 25° ESE 20:01:42 25° ESE 20:03:32 10° E
Cosmos 2184 Rocket 4.2 20:06:09 24° N 20:10:00 66° E 20:16:14 10° SSE
ARIANE 5 R/B 3.7 20:10:28 60° SSW 20:11:05 64° S 20:35:23 10° E
SL-08 R/B 4.3 20:07:36 10° SSE 20:11:57 42° ENE 20:12:59 37° NE
Ariane H10 4.0 20:18:23 42° NE 20:18:23 42° NE 20:24:27 10° E
Ariane H10+ 3.9 20:14:51 49° W 20:18:59 83° N 20:53:18 10° E
ARIANE DEB (SPELDA) 4.2 20:24:05 20° ESE 20:24:05 20° ESE 20:25:26 10° ESE
Palapa 6 Rocket 4.4 20:25:46 42° SW 20:28:53 80° SSE 20:36:39 10° ENE
Ariane 44LP R/B 4.0 20:29:35 68° WNW 20:30:11 82° N 20:41:48 10° E
Cosmos 1674 Rocket 4.1 20:29:22 10° S 20:33:42 57° E 20:37:58 10° NNE
Cosmos 2154 Rocket 4.1 20:27:33 10° N 20:33:42 72° E 20:39:52 10° S
Cosmos 372 Rocket 4.1 20:32:04 25° N 20:35:04 75° ENE 20:40:15 10° SSE
Cosmos 2181 Rocket 4.2 20:32:15 10° S 20:38:20 70° E 20:44:24 10° N
SJ-6F 4.4 20:37:37 10° NNE 20:41:48 88° ESE 20:45:58 10° S
Cosmos 2074 Rocket 4.0 20:39:26 28° NNW 20:42:31 54° W 20:48:34 10° S
BLOCK DM-SL R/B 3.6 20:47:36 37° WSW 20:49:20 63° S 21:00:39 10° E
ATLAS 3B R/B 3.1 20:53:55 22° NW 20:58:39 50° WSW 21:05:56 10° S
Sich 1 Rocket 4.0 20:54:27 10° N 20:58:50 65° E 21:03:16 10° SSE
Cosmos 1300 Rocket 3.7 20:54:30 10° N 20:58:51 74° E 21:03:15 10° S
ATLAS 5 CENTAUR R/B 3.5 20:54:03 10° N 21:00:42 54° ENE 21:07:52 10° SE
Cosmos 1782 Rocket 4.1 21:00:36 35° W 21:00:43 35° W 21:04:44 10° SSW
Cosmos 1707 2.7 20:57:54 10° SSW 21:01:43 58° W 21:05:32 10° N
Cosmos 1805 4.1 21:04:41 30° WSW 21:04:41 30° WSW 21:07:36 10° SSW
CZ-4B R/B 4.4 21:00:38 10° NNE 21:04:17 57° ESE 21:08:07 10° S
USA 276 2.0 21:06:31 21° SW 21:08:26 89° SE 21:11:33 10° NE
GPS 2-17 Rocket1 3.3 21:07:05 20° WSW 21:10:13 65° SSE 21:14:38 10° ENE
GPS 2-12 Rocket1 3.2 21:10:32 23° NW 21:13:10 61° NNE 21:17:31 10° E
Meteor 1-31 Rocket 2.7 21:11:01 10° NNE 21:14:46 83° E 21:18:33 10° S
ARIANE 5 R/B 1.1 21:13:09 24° W 21:15:03 71° S 21:17:02 10° E
Envisat 3.0 21:11:10 10° N 21:16:14 88° W 21:21:19 10° SSW
Okean 2 4.2 21:14:03 10° SSW 21:17:36 29° W 21:21:07 10° NNW
Cosmos 1833 4.3 21:12:18 10° SSW 21:18:02 83° ESE 21:23:42 10° NNE
Cosmos 405 3.6 21:16:42 10° N 21:20:05 56° E 21:23:30 10° SSE
ATLAS 3B CENTAUR R/B 4.2 21:15:48 10° SW 21:22:16 49° SE 21:35:06 10° ENE
Cosmos 2360 4.2 21:17:42 10° NNW 21:23:24 78° WSW 21:29:07 10° S
Cosmos 1980 Rocket 3.2 21:17:56 10° N 21:23:24 49° ENE 21:28:50 10° SSE
BREEZE-M R/B 2.4 21:23:56 10° SW 21:28:37 74° NW 21:31:21 10° NNE
YAOGAN 6 2.8 21:26:11 10° N 21:29:33 44° W 21:33:00 10° SSW
Meteor 1-22 Rocket 4.2 21:26:19 10° NNW 21:31:59 67° W 21:37:27 10° S
USA 305 2.9 21:28:14 10° SW 21:32:22 56° WNW 21:36:27 10° NNE
BLOCK DM-SL R/B 1.9 21:31:12 14° W 21:33:05 68° S 21:37:20 10° E
Cosmos 2218 Rocket 4.5 21:27:12 10° N 21:33:30 69° E 21:39:47 10° S
ADEOS 3.5 21:30:10 10° N 21:35:22 80° WNW 21:40:36 10° SSW
Cosmos 1538 Rocket 4.1 21:32:07 10° SSW 21:37:11 53° WNW 21:42:17 10° N
ARIANE 5 DEB (SYLDA) 4.4 21:30:44 10° W 21:38:07 31° SSW 21:40:49 10° SE
Cosmos 1125 Rocket 3.7 21:33:09 10° N 21:38:20 80° ENE 21:43:32 10° SSE
SL-8 Rocket 4.0 21:32:47 10° N 21:38:57 83° W 21:45:07 10° S
Cosmos 1726 2.4 21:37:34 10° NNW 21:41:05 45° W 21:44:39 10° SSW
Atlas Centaur 2 2.2 21:35:05 10° WSW 21:41:12 55° NW 21:45:59 10° NE
Cosmos 1697 Rocket 3.1 21:36:36 10° NW 21:41:48 40° WSW 21:47:01 10° S
ASTRO E2 3.3 21:41:18 10° W 21:44:57 37° NNW 21:48:37 10° NE
Cosmos 1470 2.7 21:41:29 10° NNW 21:45:16 58° W 21:49:04 10° S
Milstar 3 3.1 21:36:07 10° WSW 21:45:32 88° NNW 21:52:09 10° ENE
Cosmos 1184 Rocket 3.5 21:44:51 10° SSW 21:47:41 29° W 21:50:31 10° NNW
Cosmos 1025 Rocket 4.1 21:44:06 10° S 21:48:22 52° E 21:52:35 10° NNE
Meteor PRIRODA 3.9 21:44:57 10° NNE 21:48:36 74° ESE 21:52:14 10° S
Cosmos 1975 Rocket 3.0 21:45:08 10° S 21:49:28 76° W 21:53:49 10° N
Okean 2 Rocket 3.7 21:45:24 10° NNW 21:49:30 35° W 21:53:35 10° SSW
